Weather in Brusyliv

Ukraine / Zhytomyr Region     50°17′04″N   29°31′36″E
temp.,
°C
wind,
m/s
gust,
m/s
humid.,
%
clouds,
%
prec.,
mm/h
press.,
hPa
HPBL,
m
18 april, sun
sun1800:00+5wsw3595100 0.0 1019190
03:00+4wnw359671 0.0 1019162
06:00+2w369716 0.0 1019109
09:00+6w4787100 0.0 1018298
12:00+8w4880100 0.0 1017501
15:00+7wnw3788100 0.1 1017387
18:00+9nnw2383100 0.0 1017409
21:00+7e3693100 0.1 1018171
19 april, mon
mon1900:00+4e3594100 0.0 1019102
03:00+3ene3493100 0.0 101984
06:00+2ene3493100 0.0 101957
09:00+7e347998 0.0 1019355
12:00+11ene346128 0.0 10181223
15:00+13ene4448100 0.1 10171934
18:00+11ne4662100 0.1 1016286
21:00+8ne3777100 0.2 1017218
20 april, tue
tue2000:00+6ne498475 0.0 1016186
03:00+5nne37905 0.0 1014131
06:00+6nne499596 0.1 1013257
09:00+8ne698185 0.2 1013672
12:00+11nne686055 0.1 10111436
15:00+10n7860100 0.1 10091510
18:00+9nnw786525 0.0 10091138
21:00+6nnw5978100 0.1 1010747
21 april, wed
wed2100:00+6nw5882100 0.1 1010489
03:00+5nw4982100 0.1 1010522
06:00+5wnw4977100 0.0 1011464
09:00+7w4771100 0.0 1013604
12:00+10w4652100 0.1 10131805
15:00+11wsw465080 0.1 10131524
18:00+12sw465695 0.0 1013782
21:00+9ssw367690 0.1 1014105
22 april, thu
thu2200:00+8sw3682100 0.1 1015105
03:00+8sw4108290 0.2 1015245
06:00+6sw368838 0.1 1015109
09:00+10sw46725 0.1 1016438
12:00+15sw56535 0.1 10151553
15:00+17sw574399 0.4 10142405
18:00+14ssw486025 0.3 1014277
21:00+9w478573 1.3 1015128